Flag for Norway Weather past 2 weeks in Kristiansund, Norway

Now
61 °F

Light rain. Overcast.


Feels Like: 61 °F
Forecast: 57 / 63 °F
Wind: 2 mph from North

Location: Kristiansund / Kvernberget

Current Time: Aug 29, 2015 at 7:27:49 PM

Latest Report: Aug 29, 2015 at 6:50 PM


Visibility: N/A

Pressure: 29.86 "Hg

Humidity: 77%

Dew point: 54 °F

Location of KristiansundLocation

Historic Weather in Kristiansund — Graph

°F

Kristiansund temperature yesterday

Maximum temperature yesterday: 61 °F (at 2:50 PM)
Minimum temperature yesterday: 52 °F (at 2:20 AM)
Average temperature yesterday: 55 °F

Past Weeks' High & Low Weather Summary

 TemperatureHumidityPressure
High81 °F (Aug 21, 5:20 PM)100% (Aug 27, 11:20 PM)30.24 "Hg (Aug 27, 11:20 PM)
Low52 °F (Aug 28, 2:20 AM)26% (Aug 20, 1:20 PM)29.42 "Hg (Aug 27, 8:50 PM)
Average66 °F62%29.93 "Hg
* Reported Aug 14 5:20 PM — Aug 29 5:50 PM, Kristiansund, Weather by CustomWeather, © 2015

Note: Actual official high and low records may vary slightly from our data, if they occured in-between our weather recording intervals... More about our weather records

Advertising

Kristiansund weather history for previous 24 hours

 ConditionsComfort  
Time TempWeatherWind HumidityBarometerVisibility
5:50 PM
Sat, Aug 29
61 °FPartly sunny.1 mph72%29.86 "HgN/A
5:20 PM63 °FScattered clouds.3 mph56%29.86 "HgN/A
4:50 PM64 °FScattered clouds.7 mph56%29.86 "HgN/A
4:20 PM63 °FScattered clouds.8 mph64%29.86 "HgN/A
3:50 PM61 °FScattered clouds.7 mph72%29.86 "HgN/A
3:20 PM63 °FBroken clouds.8 mph59%29.86 "HgN/A
2:50 PM64 °FScattered clouds.7 mph60%29.86 "HgN/A
2:20 PM64 °FScattered clouds.8 mph60%29.86 "HgN/A
1:50 PM64 °FScattered clouds.8 mph56%29.86 "HgN/A
1:20 PM64 °FBroken clouds.10 mph56%29.86 "HgN/A
12:50 PM63 °FBroken clouds.9 mph64%29.86 "HgN/A
11:50 AM61 °FBroken clouds.13 mph63%29.86 "HgN/A
11:20 AM61 °FBroken clouds.12 mph72%29.83 "HgN/A
10:50 AM57 °FBroken clouds.12 mph72%29.83 "HgN/A
9:50 AM54 °FRain. Broken clouds.9 mph88%29.83 "HgN/A
9:20 AM55 °FLight rain. Broken clouds.8 mph82%29.83 "HgN/A
8:50 AM55 °FLight rain. Broken clouds.12 mph82%29.80 "HgN/A
7:50 AM55 °FScattered showers. Broken clouds.13 mph77%29.77 "HgN/A
7:20 AM54 °FLight rain. Broken clouds.13 mph82%29.77 "HgN/A
6:50 AM55 °FLight rain. Passing clouds.13 mph77%29.77 "HgN/A
6:20 AM55 °FScattered showers. Passing clouds.10 mph77%29.77 "HgN/A
5:50 AM54 °FMostly cloudy.13 mph88%29.77 "HgN/A
4:50 AM54 °FLight rain. Mostly cloudy.13 mph82%29.77 "HgN/A
4:20 AM54 °FMostly cloudy.14 mph82%29.77 "HgN/A
3:50 AM54 °FPartly cloudy.12 mph88%29.77 "HgN/A
3:20 AM54 °FPartly cloudy.14 mph82%29.77 "HgN/A
2:50 AM54 °FLight rain. Partly cloudy.14 mph82%29.74 "HgN/A
2:20 AM54 °FMostly cloudy.12 mph82%29.74 "HgN/A
1:50 AM54 °FPartly cloudy.14 mph88%29.74 "HgN/A
1:20 AM54 °FPartly cloudy.13 mph88%29.74 "HgN/A
12:50 AM54 °FRain. Mostly cloudy.12 mph88%29.71 "Hg5 mi
12:20 AM54 °FPartly cloudy.12 mph88%29.71 "HgN/A
11:50 PM
Fri, Aug 28
54 °FLight rain. Passing clouds.10 mph88%29.71 "HgN/A
10:50 PM54 °FRain. Partly cloudy.14 mph94%29.71 "Hg4 mi
10:20 PM54 °FLight rain. Partly cloudy.12 mph94%29.71 "HgN/A
9:50 PM54 °FSprinkles. Broken clouds.12 mph88%29.68 "HgN/A
9:20 PM55 °FBroken clouds.14 mph82%29.68 "HgN/A
8:50 PM55 °FBroken clouds.15 mph88%29.68 "HgN/A
8:20 PM55 °FScattered showers. Broken clouds.20 mph88%29.65 "HgN/A
7:50 PM57 °FScattered showers. Broken clouds.16 mph82%29.65 "HgN/A
7:20 PM57 °FScattered showers. Broken clouds.21 mph82%29.65 "HgN/A
Weather by CustomWeather, © 2015

See weather overviewHow to use our weather pages